Time,TemperatureF,DewpointF,PressureIn,WindDirection,WindDirectionDegrees,WindSpeedMPH,WindSpeedGustMPH,Humidity,HourlyPrecipIn,Conditions,Clouds,dailyrainin,SoftwareType,DateUTC
2013-10-15 00:13:00,70.7,68.6,29.82,WNW,292,0.0,-999.0,93,-99.99,,,0.00,Acu-Link.com,2013-10-15 04:13:00,
2013-10-15 00:28:00,70.3,68.2,29.81,NE,45,0.0,-999.0,93,-99.99,,,0.00,Acu-Link.com,2013-10-15 04:28:00,
2013-10-15 00:43:00,70.3,68.2,29.81,WNW,292,1.1,-999.0,93,-99.99,,,0.00,Acu-Link.com,2013-10-15 04:43:00,
2013-10-15 00:59:00,70.0,67.9,29.81,WNW,292,0.0,-999.0,93,-99.99,,,0.00,Acu-Link.com,2013-10-15 04:59:00,
2013-10-15 01:14:00,70.0,68.2,29.79,WNW,292,0.0,-999.0,94,-99.99,,,0.00,Acu-Link.com,2013-10-15 05:14:00,
2013-10-15 01:30:00,70.0,68.5,29.80,WNW,292,0.0,-999.0,95,-99.99,,,0.00,Acu-Link.com,2013-10-15 05:30:00,
2013-10-15 01:45:00,69.8,68.3,29.80,NNW,337,1.1,-999.0,95,-99.99,,,0.00,Acu-Link.com,2013-10-15 05:45:00,
2013-10-15 02:00:00,69.6,68.4,29.80,NNW,337,0.0,-999.0,96,-99.99,,,0.00,Acu-Link.com,2013-10-15 06:00:00,
2013-10-15 02:17:00,69.6,68.4,29.79,WNW,292,0.0,-999.0,96,-99.99,,,0.00,Acu-Link.com,2013-10-15 06:17:00,
2013-10-15 02:32:00,69.4,68.2,29.79,WNW,292,0.0,-999.0,96,-99.99,,,0.00,Acu-Link.com,2013-10-15 06:32:00,
2013-10-15 02:49:00,69.3,68.1,29.79,NW,315,0.0,-999.0,96,-99.99,,,0.00,Acu-Link.com,2013-10-15 06:49:00,
2013-10-15 03:04:00,69.3,68.4,29.79,NNW,337,0.0,-999.0,97,-99.99,,,0.00,Acu-Link.com,2013-10-15 07:04:00,
2013-10-15 03:20:00,69.1,68.2,29.78,SSW,202,0.0,-999.0,97,-99.99,,,0.00,Acu-Link.com,2013-10-15 07:20:00,
2013-10-15 03:35:00,68.7,67.8,29.79,NW,315,0.0,-999.0,97,-99.99,,,0.00,Acu-Link.com,2013-10-15 07:35:00,
2013-10-15 03:52:00,68.9,68.3,29.78,WNW,292,0.0,-999.0,98,-99.99,,,0.00,Acu-Link.com,2013-10-15 07:52:00,
2013-10-15 04:07:00,68.9,68.3,29.77,NNW,337,0.0,-999.0,98,-99.99,,,0.00,Acu-Link.com,2013-10-15 08:07:00,
2013-10-15 04:23:00,68.9,68.3,29.78,NE,45,0.0,-999.0,98,-99.99,,,0.00,Acu-Link.com,2013-10-15 08:23:00,
2013-10-15 04:38:00,68.9,68.3,29.77,NW,315,0.0,-999.0,98,-99.99,,,0.00,Acu-Link.com,2013-10-15 08:38:00,
2013-10-15 04:53:00,68.7,68.4,29.77,West,270,0.0,-999.0,99,-99.99,,,0.00,Acu-Link.com,2013-10-15 08:53:00,
2013-10-15 05:08:00,68.7,68.4,29.78,East,90,0.0,-999.0,99,-99.99,,,0.00,Acu-Link.com,2013-10-15 09:08:00,
2013-10-15 05:24:00,68.5,68.2,29.77,NW,315,0.0,-999.0,99,-99.99,,,0.00,Acu-Link.com,2013-10-15 09:24:00,
2013-10-15 05:39:00,68.2,67.9,29.77,NW,315,0.0,-999.0,99,-99.99,,,0.00,Acu-Link.com,2013-10-15 09:39:00,
2013-10-15 05:54:00,68.0,67.7,29.77,WSW,247,0.0,-999.0,99,-99.99,,,0.00,Acu-Link.com,2013-10-15 09:54:00,
2013-10-15 06:10:00,67.8,67.5,29.77,NNE,22,0.0,-999.0,99,-99.99,,,0.00,Acu-Link.com,2013-10-15 10:10:00,
2013-10-15 06:25:00,67.6,67.3,29.78,ESE,112,0.0,-999.0,99,-99.99,,,0.00,Acu-Link.com,2013-10-15 10:25:00,
2013-10-15 06:40:00,67.3,67.0,29.78,East,90,0.0,-999.0,99,-99.99,,,0.00,Acu-Link.com,2013-10-15 10:40:00,
2013-10-15 06:55:00,67.8,67.5,29.78,West,270,0.0,-999.0,99,-99.99,,,0.00,Acu-Link.com,2013-10-15 10:55:00,
2013-10-15 07:11:00,68.0,67.7,29.78,WNW,292,0.0,-999.0,99,-99.99,,,0.00,Acu-Link.com,2013-10-15 11:11:00,
2013-10-15 07:26:00,68.2,67.9,29.78,WSW,247,0.0,-999.0,99,-99.99,,,0.00,Acu-Link.com,2013-10-15 11:26:00,
2013-10-15 07:41:00,68.2,67.9,29.78,NNE,22,0.0,-999.0,99,-99.99,,,0.00,Acu-Link.com,2013-10-15 11:41:00,
2013-10-15 07:56:00,68.5,68.2,29.79,SSE,157,0.0,-999.0,99,-99.99,,,0.00,Acu-Link.com,2013-10-15 11:56:00,
2013-10-15 08:12:00,68.9,68.6,29.80,NW,315,0.0,-999.0,99,-99.99,,,0.00,Acu-Link.com,2013-10-15 12:12:00,
2013-10-15 08:27:00,69.1,68.8,29.79,NW,315,0.0,-999.0,99,-99.99,,,0.00,Acu-Link.com,2013-10-15 12:27:00,
2013-10-15 08:43:00,69.6,69.3,29.81,NW,315,0.0,-999.0,99,-99.99,,,0.00,Acu-Link.com,2013-10-15 12:43:00,
2013-10-15 08:58:00,69.6,69.3,29.81,WNW,292,0.0,-999.0,99,-99.99,,,0.00,Acu-Link.com,2013-10-15 12:58:00,
2013-10-15 09:13:00,70.3,70.0,29.81,NNW,337,0.0,-999.0,99,-99.99,,,0.00,Acu-Link.com,2013-10-15 13:13:00,
2013-10-15 09:28:00,70.3,69.7,29.82,WNW,292,3.7,-999.0,98,-99.99,,,0.00,Acu-Link.com,2013-10-15 13:28:00,
2013-10-15 09:44:00,70.9,70.3,29.82,NW,315,0.0,-999.0,98,-99.99,,,0.00,Acu-Link.com,2013-10-15 13:44:00,
2013-10-15 09:59:00,72.0,70.2,29.82,NNW,337,2.2,-999.0,94,-99.99,,,0.00,Acu-Link.com,2013-10-15 13:59:00,
2013-10-15 10:14:00,71.4,69.6,29.82,WNW,292,2.2,-999.0,94,-99.99,,,0.00,Acu-Link.com,2013-10-15 14:14:00,
2013-10-15 10:29:00,72.5,70.7,29.82,West,270,1.7,-999.0,94,-99.99,,,0.00,Acu-Link.com,2013-10-15 14:29:00,
2013-10-15 10:44:00,73.0,70.5,29.82,East,90,0.0,-999.0,92,-99.99,,,0.00,Acu-Link.com,2013-10-15 14:44:00,
2013-10-15 11:00:00,74.3,71.2,29.82,NNW,337,2.7,-999.0,90,-99.99,,,0.00,Acu-Link.com,2013-10-15 15:00:00,
2013-10-15 11:15:00,75.7,71.9,29.81,West,270,0.0,-999.0,88,-99.99,,,0.00,Acu-Link.com,2013-10-15 15:15:00,
2013-10-15 11:30:00,77.0,72.1,29.82,WSW,247,4.7,-999.0,85,-99.99,,,0.00,Acu-Link.com,2013-10-15 15:30:00,
2013-10-15 11:46:00,77.9,72.3,29.80,SW,225,3.2,-999.0,83,-99.99,,,0.00,Acu-Link.com,2013-10-15 15:46:00,
2013-10-15 12:01:00,79.9,73.2,29.81,NNW,337,3.2,-999.0,80,-99.99,,,0.00,Acu-Link.com,2013-10-15 16:01:00,
2013-10-15 12:16:00,80.1,72.6,29.80,WNW,292,3.2,-999.0,78,-99.99,,,0.00,Acu-Link.com,2013-10-15 16:16:00,
2013-10-15 12:32:00,83.1,73.9,29.79,NNE,22,0.0,-999.0,74,-99.99,,,0.00,Acu-Link.com,2013-10-15 16:32:00,
2013-10-15 12:47:00,82.2,73.5,29.78,ESE,112,1.7,-999.0,75,-99.99,,,0.00,Acu-Link.com,2013-10-15 16:47:00,
2013-10-15 13:02:00,82.9,73.3,29.77,ESE,112,1.7,-999.0,73,-99.99,,,0.00,Acu-Link.com,2013-10-15 17:02:00,
2013-10-15 13:17:00,84.6,74.1,29.76,West,270,0.0,-999.0,71,-99.99,,,0.00,Acu-Link.com,2013-10-15 17:17:00,
2013-10-15 13:33:00,82.9,71.7,29.76,NE,45,0.0,-999.0,69,-99.99,,,0.00,Acu-Link.com,2013-10-15 17:33:00,
2013-10-15 13:48:00,84.9,73.6,29.75,ENE,67,0.0,-999.0,69,-99.99,,,0.00,Acu-Link.com,2013-10-15 17:48:00,
2013-10-15 14:03:00,84.4,72.2,29.76,North,0,0.0,-999.0,67,-99.99,,,0.00,Acu-Link.com,2013-10-15 18:03:00,
2013-10-15 14:19:00,84.4,72.2,29.75,West,270,0.0,-999.0,67,-99.99,,,0.00,Acu-Link.com,2013-10-15 18:19:00,
2013-10-15 14:34:00,86.4,73.2,29.74,West,270,0.0,-999.0,65,-99.99,,,0.00,Acu-Link.com,2013-10-15 18:34:00,
2013-10-15 14:49:00,85.1,71.1,29.73,SW,225,0.0,-999.0,63,-99.99,,,0.00,Acu-Link.com,2013-10-15 18:49:00,
2013-10-15 15:04:00,86.4,71.8,29.72,WNW,292,4.7,-999.0,62,-99.99,,,0.00,Acu-Link.com,2013-10-15 19:04:00,
2013-10-15 15:19:00,86.5,70.4,29.73,West,270,0.0,-999.0,59,-99.99,,,0.00,Acu-Link.com,2013-10-15 19:19:00,
2013-10-15 15:35:00,87.3,72.2,29.73,ESE,112,0.0,-999.0,61,-99.99,,,0.00,Acu-Link.com,2013-10-15 19:35:00,
2013-10-15 15:50:00,86.2,71.1,29.73,ESE,112,0.0,-999.0,61,-99.99,,,0.00,Acu-Link.com,2013-10-15 19:50:00,
2013-10-15 16:05:00,83.7,71.1,29.72,West,270,0.0,-999.0,66,-99.99,,,0.00,Acu-Link.com,2013-10-15 20:05:00,
2013-10-15 16:20:00,83.8,72.9,29.72,NE,45,4.7,-999.0,70,-99.99,,,0.00,Acu-Link.com,2013-10-15 20:20:00,
2013-10-15 16:35:00,84.2,73.3,29.72,NE,45,3.7,-999.0,70,-99.99,,,0.00,Acu-Link.com,2013-10-15 20:35:00,
2013-10-15 16:50:00,85.1,73.3,29.72,ESE,112,0.0,-999.0,68,-99.99,,,0.00,Acu-Link.com,2013-10-15 20:50:00,
2013-10-15 17:06:00,83.1,72.7,29.71,NE,45,3.2,-999.0,71,-99.99,,,0.00,Acu-Link.com,2013-10-15 21:06:00,
2013-10-15 17:21:00,82.2,73.1,29.72,ENE,67,4.2,-999.0,74,-99.99,,,0.00,Acu-Link.com,2013-10-15 21:21:00,
2013-10-15 17:36:00,82.8,73.2,29.72,WNW,292,0.0,-999.0,73,-99.99,,,0.00,Acu-Link.com,2013-10-15 21:36:00,
2013-10-15 17:52:00,83.7,73.3,29.72,NNE,22,2.7,-999.0,71,-99.99,,,0.00,Acu-Link.com,2013-10-15 21:52:00,
2013-10-15 18:07:00,82.6,73.0,29.72,ESE,112,4.2,-999.0,73,-99.99,,,0.00,Acu-Link.com,2013-10-15 22:07:00,
2013-10-15 18:22:00,81.1,71.6,29.73,ENE,67,1.1,-999.0,73,-99.99,,,0.00,Acu-Link.com,2013-10-15 22:22:00,
2013-10-15 18:37:00,79.2,70.2,29.73,NE,45,3.2,-999.0,74,-99.99,,,0.00,Acu-Link.com,2013-10-15 22:37:00,
2013-10-15 18:53:00,78.3,70.5,29.74,ENE,67,0.0,-999.0,77,-99.99,,,0.00,Acu-Link.com,2013-10-15 22:53:00,
2013-10-15 19:08:00,77.5,69.7,29.75,East,90,0.0,-999.0,77,-99.99,,,0.00,Acu-Link.com,2013-10-15 23:08:00,
2013-10-15 19:23:00,76.6,69.2,29.74,East,90,0.0,-999.0,78,-99.99,,,0.00,Acu-Link.com,2013-10-15 23:23:00,
2013-10-15 19:38:00,75.6,69.0,29.74,East,90,0.0,-999.0,80,-99.99,,,0.00,Acu-Link.com,2013-10-15 23:38:00,
2013-10-15 19:54:00,75.0,69.1,29.75,East,90,0.0,-999.0,82,-99.99,,,0.00,Acu-Link.com,2013-10-15 23:54:00,
2013-10-15 20:09:00,74.3,68.8,29.75,ENE,67,0.0,-999.0,83,-99.99,,,0.00,Acu-Link.com,2013-10-16 00:09:00,
2013-10-15 20:24:00,73.6,68.8,29.77,ENE,67,0.0,-999.0,85,-99.99,,,0.00,Acu-Link.com,2013-10-16 00:24:00,
2013-10-15 20:39:00,72.9,68.5,29.76,ENE,67,0.0,-999.0,86,-99.99,,,0.00,Acu-Link.com,2013-10-16 00:39:00,
2013-10-15 20:55:00,72.0,68.6,29.77,ENE,67,0.0,-999.0,89,-99.99,,,0.00,Acu-Link.com,2013-10-16 00:55:00,
2013-10-15 21:10:00,71.8,68.0,29.77,ENE,67,0.0,-999.0,88,-99.99,,,0.00,Acu-Link.com,2013-10-16 01:10:00,
2013-10-15 21:25:00,71.4,68.3,29.77,ENE,67,0.0,-999.0,90,-99.99,,,0.00,Acu-Link.com,2013-10-16 01:25:00,
2013-10-15 21:41:00,70.9,67.8,29.78,ENE,67,0.0,-999.0,90,-99.99,,,0.00,Acu-Link.com,2013-10-16 01:41:00,
2013-10-15 21:56:00,70.5,67.7,29.78,ENE,67,0.0,-999.0,91,-99.99,,,0.00,Acu-Link.com,2013-10-16 01:56:00,
2013-10-15 22:11:00,70.2,67.8,29.78,ENE,67,0.0,-999.0,92,-99.99,,,0.00,Acu-Link.com,2013-10-16 02:11:00,
2013-10-15 22:26:00,70.0,67.6,29.79,South,180,0.0,-999.0,92,-99.99,,,0.00,Acu-Link.com,2013-10-16 02:26:00,
2013-10-15 22:42:00,69.6,67.5,29.79,WNW,292,0.0,-999.0,93,-99.99,,,0.00,Acu-Link.com,2013-10-16 02:42:00,
2013-10-15 22:57:00,69.8,68.0,29.79,WNW,292,0.0,-999.0,94,-99.99,,,0.00,Acu-Link.com,2013-10-16 02:57:00,
2013-10-15 23:12:00,70.3,68.2,29.79,WNW,292,0.0,-999.0,93,-99.99,,,0.00,Acu-Link.com,2013-10-16 03:12:00,
2013-10-15 23:27:00,69.8,67.7,29.78,WNW,292,0.0,-999.0,93,-99.99,,,0.00,Acu-Link.com,2013-10-16 03:27:00,
2013-10-15 23:42:00,69.4,67.3,29.79,WNW,292,0.0,-999.0,93,-99.99,,,0.00,Acu-Link.com,2013-10-16 03:42:00,
2013-10-15 23:57:00,69.8,68.6,29.78,WNW,292,0.0,-999.0,96,-99.99,,,0.00,Acu-Link.com,2013-10-16 03:57:00,